Starlink 32711

operational
NORAD ID: 62435 Int'l Des: 2024-251 Owner: SPXS Country: US Constellation: starlink
LEOCIRCULAR

About Starlink 32711

Description loading...

Live Position

Loading 3D Globe...

Upcoming Passes

Altitude History

Altitude vs Time

uPlot chart will show altitude changes over time

Two-Line Element Set

1 62435U 24251D 25354.70122546 .00015080 00000-0 52037-3 0 9994
2 62435 53.1618 342.2888 0001623 80.8569 279.2615 15.30191777 55855
Epoch: Dec 20, 2025 • Age: 15 hours

Current Status

Altitude 494.3 km
Velocity 7.62 km/s
Sub-Earth Point -52.08°S, 53.83°E
Launch Date Dec 29, 2024
Age 0.9 years
Type internet

Technical Details

Classification Payload
Mass 730.00 kg
Dry Mass 700.00 kg
Total Mass 730.00 kg
Length 0.30 m
Diameter 4.10 m
Span 29.00 m
Shape Box + pan
Manufacturer SPXS
Bus Type Starlink V2M
Phase Status In Orbit
Owner/State SPXS/US

Large Constellations

Loading constellations...